Location: Newark
(52.1858°N, 3.9161°W)
Time: 08:44:52
(UTC+00:00)

ISS - Visible Passes

Search period start: 18 July 2019 00:00
Search period end: 28 July 2019 00:00
Orbit: 409 x 418 km, 51.6° (Epoch: 18 July)

Date Brightness Start Highest point End Pass type
(mag) Time Alt. Az. Time Alt. Az. Time Alt. Az.
18 Jul -3.9 01:04:34 10° W 01:07:54 76° S 01:11:13 10° ESE visible
18 Jul -3.1 02:41:21 10° W 02:44:20 31° SSW 02:47:19 10° SE visible
18 Jul -3.8 22:38:41 10° WSW 22:41:59 58° SSE 22:45:16 10° E visible
19 Jul -3.9 00:15:15 10° W 00:18:36 83° S 00:21:56 10° E visible
19 Jul -3.5 01:51:58 10° W 01:55:09 42° SSW 01:58:18 10° SE visible
19 Jul -1.8 03:29:53 10° WSW 03:31:10 12° SW 03:32:28 10° SSW visible
19 Jul -3.5 21:49:31 10° SW 21:52:43 45° SSE 21:55:57 10° E visible
19 Jul -3.9 23:25:56 10° W 23:29:17 83° S 23:32:37 10° E visible
20 Jul -3.8 01:02:37 10° W 01:05:54 56° SSW 01:09:03 11° ESE visible
20 Jul -2.0 02:39:48 10° W 02:45:51 - SSE 02:41:10 16° WSW visible
20 Jul -3.9 22:36:37 10° WSW 22:39:58 78° S 22:43:18 10° E visible
21 Jul -3.9 00:13:17 10° W 00:16:37 69° SSW 00:17:58 32° ESE visible
21 Jul -1.5 01:50:10 10° W 01:50:42 13° W 01:50:42 13° W visible
21 Jul -3.8 21:47:19 10° WSW 21:50:39 68° SSE 21:53:58 10° E visible
21 Jul -3.9 23:23:57 10° W 23:27:17 79° S 23:29:21 21° ESE visible
22 Jul -2.1 01:00:41 10° W 01:02:07 21° WSW 01:02:07 21° WSW visible
22 Jul -3.9 22:34:36 10° W 22:37:57 83° S 22:41:06 11° E visible
23 Jul -3.2 00:11:18 10° W 00:13:54 40° SW 00:13:54 40° SW visible
23 Jul -3.9 21:45:14 10° W 21:48:35 82° S 21:51:56 10° E visible
23 Jul -3.8 23:21:55 10° W 23:25:12 59° SSW 23:25:50 48° SSE visible
24 Jul -3.9 22:32:32 10° W 22:35:52 72° S 22:37:49 23° ESE visible
25 Jul -1.8 00:09:22 10° W 00:10:37 18° WSW 00:10:37 18° WSW visible
25 Jul -3.9 21:43:08 10° W 21:46:30 81° S 21:49:50 10° E visible
25 Jul -3.1 23:19:52 10° W 23:22:41 36° SW 23:22:41 36° SW visible
26 Jul -3.8 20:53:45 10° W 20:57:06 84° S 21:00:27 10° E visible
26 Jul -3.5 22:30:26 10° W 22:33:41 50° SSW 22:34:47 33° SE visible
27 Jul -3.7 21:41:00 10° W 21:44:20 63° SSW 21:46:55 15° ESE visible
27 Jul -1.9 23:18:00 10° W 23:19:43 19° WSW 23:19:43 19° WSW visible
